UAL471 KIAD-KATL

Flight info

Callsign UAL471
Flight time N/A
Altitude 34000
Route CLTCH3 FLASK OZZZI1
Aircraft A320/M-SDE3FGHIRWY/LB1

Departure

Time 2026-05-07 03:04
Airport Washington Dulles International Airport (KIAD)

Arrival

Time N/A
Airport Hartsfield Jackson Atlanta International Airport (KATL)
Time Latitude Longitude Altitude Speed Heading
2026-05-07 02:37 38.94473 -77.44608 289 ft 0 kts
2026-05-07 02:52 38.94453 -77.44609 307 ft 4 kts 350°
2026-05-07 02:53 38.94429 -77.44597 308 ft 4 kts 318°
2026-05-07 02:53 38.94414 -77.44571 306 ft 4 kts 277°
2026-05-07 02:53 38.94414 -77.44564 307 ft 0 kts 271°
2026-05-07 02:56 38.94414 -77.44565 307 ft 1 kts 271°
2026-05-07 02:56 38.94414 -77.44578 306 ft 2 kts 271°
2026-05-07 02:56 38.94415 -77.44619 306 ft 7 kts 271°
2026-05-07 02:57 38.94415 -77.44707 306 ft 14 kts 270°
2026-05-07 02:57 38.94416 -77.44844 304 ft 17 kts 271°
2026-05-07 02:57 38.94418 -77.45008 302 ft 20 kts 272°
2026-05-07 02:57 38.94419 -77.45191 299 ft 16 kts 270°
2026-05-07 02:58 38.94421 -77.45352 299 ft 20 kts 272°
2026-05-07 02:58 38.94422 -77.45498 300 ft 15 kts 269°
2026-05-07 02:58 38.94403 -77.45607 298 ft 11 kts 208°
2026-05-07 02:58 38.94313 -77.45612 299 ft 18 kts 181°
2026-05-07 02:59 38.94175 -77.45613 300 ft 21 kts 181°
2026-05-07 02:59 38.94028 -77.45616 300 ft 21 kts 180°
2026-05-07 02:59 38.93891 -77.45615 300 ft 18 kts 179°
2026-05-07 02:59 38.93765 -77.45621 298 ft 15 kts 181°
2026-05-07 03:00 38.93683 -77.45582 296 ft 14 kts 130°
2026-05-07 03:00 38.93616 -77.45497 298 ft 12 kts 158°
2026-05-07 03:00 38.93546 -77.45516 298 ft 10 kts 200°
2026-05-07 03:00 38.93477 -77.45550 293 ft 11 kts 200°
2026-05-07 03:01 38.93462 -77.45557 295 ft 0 kts 200°
2026-05-07 03:01 38.93461 -77.45557 295 ft 0 kts 200°
2026-05-07 03:02 38.93444 -77.45566 294 ft 6 kts 200°
2026-05-07 03:02 38.93402 -77.45603 296 ft 8 kts 231°
2026-05-07 03:02 38.93385 -77.45667 294 ft 8 kts 274°
2026-05-07 03:02 38.93402 -77.45735 296 ft 6 kts 292°
2026-05-07 03:03 38.93409 -77.45758 297 ft 14 kts 292°
2026-05-07 03:03 38.93530 -77.46166 300 ft 81 kts 291°
2026-05-07 03:03 38.93795 -77.47061 307 ft 131 kts 289°
2026-05-07 03:03 38.94160 -77.48299 400 ft 162 kts 294°
2026-05-07 03:04 38.94558 -77.49646 965 ft 162 kts 293°
2026-05-07 03:04 38.94923 -77.51016 1603 ft 162 kts 291°
2026-05-07 03:04 38.95252 -77.52410 2100 ft 170 kts 291°
2026-05-07 03:04 38.95616 -77.53959 2287 ft 194 kts 290°
2026-05-07 03:05 38.96042 -77.55713 2589 ft 218 kts 290°
2026-05-07 03:05 38.96420 -77.57706 2955 ft 243 kts 273°
2026-05-07 03:05 38.95998 -77.59845 3639 ft 256 kts 240°
2026-05-07 03:05 38.94697 -77.61393 4576 ft 260 kts 207°
2026-05-07 03:06 38.93004 -77.62197 5528 ft 259 kts 202°
2026-05-07 03:06 38.91297 -77.62927 6436 ft 259 kts 203°
2026-05-07 03:06 38.89592 -77.63647 7331 ft 258 kts 203°
2026-05-07 03:06 38.87884 -77.64372 8148 ft 260 kts 204°
2026-05-07 03:07 38.86164 -77.65105 8972 ft 261 kts 204°
2026-05-07 03:07 38.84436 -77.65845 9797 ft 262 kts 205°
2026-05-07 03:07 38.82690 -77.66595 10342 ft 272 kts 205°
2026-05-07 03:07 38.80825 -77.67406 10498 ft 295 kts 205°
2026-05-07 03:08 38.78830 -77.68278 10707 ft 314 kts 204°
2026-05-07 03:08 38.76734 -77.69185 11240 ft 321 kts 204°
2026-05-07 03:08 38.74597 -77.70099 11867 ft 325 kts 204°
2026-05-07 03:08 38.72440 -77.71020 12502 ft 329 kts 204°
2026-05-07 03:09 38.70254 -77.71952 13131 ft 333 kts 204°
2026-05-07 03:09 38.68041 -77.72895 13739 ft 337 kts 204°
2026-05-07 03:09 38.65809 -77.73849 14319 ft 340 kts 205°
2026-05-07 03:09 38.63558 -77.74811 14908 ft 342 kts 205°
2026-05-07 03:10 38.61298 -77.75775 15477 ft 344 kts 206°
2026-05-07 03:10 38.59017 -77.76746 16043 ft 346 kts 206°
2026-05-07 03:10 38.56727 -77.77723 16613 ft 348 kts 206°
2026-05-07 03:10 38.54450 -77.78784 17191 ft 346 kts 212°
2026-05-07 03:11 38.52389 -77.80312 17778 ft 340 kts 223°
2026-05-07 03:11 38.50640 -77.82289 18376 ft 334 kts 233°
2026-05-07 03:11 38.49087 -77.84499 18923 ft 335 kts 233°
2026-05-07 03:11 38.47520 -77.86714 19491 ft 337 kts 233°
2026-05-07 03:12 38.45941 -77.88932 20072 ft 339 kts 233°
2026-05-07 03:12 38.44412 -77.91212 20643 ft 337 kts 239°
2026-05-07 03:12 38.43057 -77.93654 21183 ft 338 kts 240°
2026-05-07 03:12 38.41716 -77.96078 21690 ft 340 kts 240°
2026-05-07 03:13 38.40353 -77.98539 22191 ft 341 kts 240°
2026-05-07 03:13 38.38977 -78.01018 22665 ft 343 kts 240°
2026-05-07 03:13 38.37595 -78.03504 23149 ft 344 kts 240°
2026-05-07 03:13 38.36210 -78.06000 23591 ft 346 kts 240°
2026-05-07 03:14 38.34813 -78.08515 23973 ft 348 kts 240°
2026-05-07 03:14 38.33437 -78.10994 24347 ft 350 kts 240°
2026-05-07 03:14 38.30619 -78.16065 25126 ft 352 kts 240°
2026-05-07 03:15 38.29202 -78.18609 25493 ft 353 kts 240°
2026-05-07 03:15 38.27777 -78.21164 25862 ft 354 kts 240°
2026-05-07 03:15 38.26348 -78.23720 26224 ft 355 kts 240°
2026-05-07 03:15 38.24912 -78.26287 26580 ft 357 kts 240°
2026-05-07 03:16 38.23471 -78.28858 26944 ft 358 kts 240°
2026-05-07 03:16 38.22023 -78.31442 27288 ft 359 kts 240°
2026-05-07 03:16 38.20570 -78.34038 27632 ft 361 kts 240°
2026-05-07 03:16 38.19111 -78.36638 27985 ft 362 kts 240°
2026-05-07 03:17 38.17649 -78.39245 28148 ft 362 kts 240°
2026-05-07 03:17 38.16180 -78.41807 28392 ft 365 kts 239°
2026-05-07 03:17 38.14648 -78.44394 28721 ft 367 kts 239°
2026-05-07 03:17 38.13098 -78.46970 29183 ft 366 kts 239°
2026-05-07 03:18 38.11552 -78.49522 29687 ft 364 kts 239°
2026-05-07 03:18 38.10014 -78.52058 30144 ft 362 kts 239°
2026-05-07 03:18 38.08486 -78.54585 30572 ft 359 kts 239°
2026-05-07 03:18 38.06976 -78.57093 31017 ft 356 kts 239°
2026-05-07 03:19 38.05483 -78.59577 31475 ft 353 kts 240°